Location: �bnet
(46.9957°N, 8.4908°E)
Time: 23:26:53
(UTC+00:00)

Cosmos 372 Rocket - Pass Details

Date: 11 May 2021
Orbit: 738 x 768 km, 74.1° (Epoch: 18 June)

Event Time Altitude Azimuth Distance (km) Brightness Sun altitude
Exits shadow 23:06:58 52° 248° (WSW) 916 4.2 -24.8°
Maximum altitude 23:07:53 62° 295° (WNW) 831 4.2 -24.8°
Drops below altitude 10° 23:12:57 10° 16° (NNE) 2,257 7.4 -24.8°
Sets 23:15:21 0° 20° (NNE) 3,185 8.3 -24.9°
